Regional Weather Roundup
Issued by NWS

Home | Current Version | Previous Version | Graphics & Text | Print | Product List | Glossary On
Versions: 1 2 3 4 5 6 7 8 9 10 11 12 13 14 15 16 17 18 19 20 21 22 23 24 25 26 27 28 29 30 31 32 33 34 35 36 37 38 39 40 41 42 43 44 45 46 47 48 49 50
000
ASUS43 KMPX 011810
RWRMN
WEATHER ROUNDUP FOR MINNESOTA
NATIONAL WEATHER SERVICE TWIN CITIES/CHANHASSEN MN
100 PM CDT FRI AUG 01 2014


NOTE: "FAIR" INDICATES FEW OR NO CLOUDS BELOW 12,000 FEET WITH NO
SIGNIFICANT WEATHER AND/OR OBSTRUCTIONS TO VISIBILITY. N/A MEANS
CURRENT SKY AND/OR WEATHER CONDITIONS ARE NOT AVAILABLE.

MNZ060>063-068>070-011900-
   Twin Cities Metro

CITY           SKY/WX    TMP DP  RH WIND       PRES   REMARKS
TWIN CITIES    PTSUNNY   81  58  45 W7        30.07R
6HR MIN TEMP:  65; 6HR MAX TEMP:  82;

ST PAUL        PTSUNNY   80  59  48 NW3       30.06S
CRYSTAL        MOSUNNY   83  56  39 SW6       30.06R
BLAINE         MOSUNNY   81  59  47 CALM      30.07R
LAKEVILLE      SUNNY     79  61  53 W5        30.08S
EDEN PRAIRIE   PTSUNNY   83  61  47 N8        30.07R
6HR MIN TEMP:  61; 6HR MAX TEMP:  83;

SOUTH ST PAUL  MOSUNNY   82  58  44 W3        30.07R
LAKE ELMO      PTSUNNY   79  61  53 NW3       30.08R
$$
MNZ001>005-007-008-013>017-022>024-027-028-011900-
   Northwest Minnesota

CITY           SKY/WX    TMP DP  RH WIND       PRES   REMARKS
BEMIDJI        SUNNY     77  56  48 NW7       30.08S
HALLOCK        MOSUNNY   79  57  47 NW7       30.07F
ROSEAU         SUNNY     79  57  47 NE3       30.08S
WARROAD        SUNNY     73  57  56 E5        30.09S
THIEF RVR FALL MOSUNNY   77  55  47 N8        30.09S
CROOKSTON      SUNNY     77  59  53 N7        30.09S
FOSSTON        SUNNY     77  61  57 CALM      30.09S
DETROIT LAKES  MOSUNNY   77  55  47 N3        30.11S
MOORHEAD       SUNNY     79  64  61 NE6       30.08F
PARK RAPIDS    MOSUNNY   79  54  41 W7        30.08S
$$
MNZ006-009>011-018-025>026-011900-
   North Central Minnesota

CITY           SKY/WX    TMP DP  RH WIND       PRES   REMARKS
BAUDETTE       SUNNY     78  50  37 N10       30.08S
FLAG ISLAND    SUNNY     73  46  38 CALM      30.07S
INTL FALLS     SUNNY     76  53  44 NW5       30.06F
6HR MIN TEMP:  50; 6HR MAX TEMP:  76;

WASKISH        SUNNY     75  64  69 CALM      30.07S
BIG FORK       MOSUNNY  N/A N/A N/A N3        30.07S
LONGVILLE      SUNNY     77  57  50 W6        30.08S
GRAND RAPIDS   PTSUNNY   77  55  47 NW3       30.07S
CRANE LAKE     SUNNY     73  52  46 CALM      30.08S
ORR            SUNNY     75  54  46 NW3       30.04F
COOK           SUNNY     75  54  46 W3        30.07S
$$
MNZ012-019>021-037-011900-
   Northeast Minnesota

CITY           SKY/WX    TMP DP  RH WIND       PRES   REMARKS
DULUTH         MOSUNNY   74  58  57 S9        30.08R
6HR MIN TEMP:  58; 6HR MAX TEMP:  75;

ELY            MOSUNNY   73  48  40 CALM      30.07S
HIBBING        PTSUNNY   80  57  45 NW3       30.06S
EVELETH        MOSUNNY   77  54  44 SW5       30.08S
DULUTH HARBOR  SUNNY     63  54  72 NE3       30.09R
TWO HARBORS    SUNNY     68  54  60 SE5       30.07R
SILVER BAY     MOSUNNY   68  57  68 SE5       30.06S
GRAND MARAIS     N/A     64  52  64 MISG      30.08R
G MARAIS ARPRT MOSUNNY   66  52  59 SE6       30.11R
$$
MNZ029>031-032-039>041-046>048-054>057-064-011900-
   West Central Minnesota

CITY           SKY/WX    TMP DP  RH WIND       PRES   REMARKS
FERGUS FALLS   SUNNY     81  57  44 NW7       30.07S
WHEATON        SUNNY     79  59  50 W7        30.10F
MORRIS         SUNNY     82  64  54 NW6       30.08S
ALEXANDRIA     MOSUNNY   81  58  45 NW8       30.10S
ELBOW LAKE     FAIR      78  64  61 NW9       30.09S
WADENA         MOSUNNY   79  61  53 W6        30.08S
GLENWOOD       SUNNY     81  59  47 NW7       30.10S
APPLETON       SUNNY     82  57  42 NW6       30.09S
BENSON         MOSUNNY   81  61  50 N7        30.09S
ORTONVILLE     SUNNY     82  59  44 N6        30.09F
MADISON        SUNNY     82  61  47 NW3       30.09S
WILLMAR        FAIR      81  59  47 NW7       30.10S
$$
MNZ033>034-036-042>043-049>051-058-059-011900-
   Central Minnesota

CITY           SKY/WX    TMP DP  RH WIND       PRES   REMARKS
ST CLOUD       MOSUNNY   84  57  39 CALM      30.07S
6HR MIN TEMP:  59; 6HR MAX TEMP:  85;

SAUK CENTRE    FAIR      81  60  50 SW6       30.09S
PAYNESVILLE    SUNNY     77  56  48 NW5       30.09S HAZE
AITKIN         MOSUNNY   81  64  57 S3        30.06S
PINE RIVER     MOSUNNY   79  57  47 NW8       30.10S
BRAINERD       LGT RAIN  68  62  81 NW10      30.09R
STAPLES        MOSUNNY   79  59  50 W5        30.08S
LONG PRAIRIE   PTSUNNY   79  59  50 NW3       30.08F
LITTLE FALLS   SUNNY     77  55  47 W7        30.08S
LITCHFIELD     SUNNY     81  61  50 W6        30.09S
BUFFALO        SUNNY     80  58  45 SW3       30.08S
MAPLE LAKE     MOSUNNY   81  62  53 CALM      30.08F
$$
MNZ037-044-045-052-053-011900-
   East Central Minnesota

CITY           SKY/WX    TMP DP  RH WIND       PRES   REMARKS
PRINCETON      MOSUNNY   82  61  47 N3        30.07S
MORA           MOSUNNY   75  55  50 CALM      30.08F
CAMBRIDGE      SUNNY     82  61  47 NW3       30.05F
RUSH CITY      SUNNY     80  55  43 CALM      30.07S
MOOSE LAKE     SUNNY     77  57  50 CALM      30.06R
HINCKLEY       FAIR      79  61  53 CALM      30.07S
CLOQUET        SUNNY     75  57  53 S5        30.08S
MCGREGOR       MOSUNNY   77  57  50 CALM      30.07S
$$
MNZ071>073-080-081-089-090-097-098-011900-
   Southwest Minnesota

CITY           SKY/WX    TMP DP  RH WIND       PRES   REMARKS
MONTEVIDEO     SUNNY     82  61  47 NE5       30.10S
GRANITE FALLS  SUNNY     79  61  53 CALM      30.11S
CANBY          SUNNY     81  59  47 E3        30.12S
MARSHALL       SUNNY     79  57  47 CALM      30.10S
REDWOOD FALLS  SUNNY     82  59  45 N5        30.09S
OLIVIA         MOSUNNY   79  59  50 W5        30.09S
PIPESTONE      PTSUNNY   79  55  44 NW3       30.13S
WINDOM         SUNNY     79  55  44 NW6       30.12S
WORTHINGTON    MOSUNNY   75  55  50 N7        30.14S
JACKSON        MOSUNNY   77  52  41 CALM      30.12S
TRACY          SUNNY     80  58  47 CALM      30.12S
SLAYTON        MOSUNNY   77  53  42 CALM      30.13S
$$
MNZ065>067-074>077-082>085-091>093-011900-
   South Central Minnesota

CITY           SKY/WX    TMP DP  RH WIND       PRES   REMARKS
MANKATO        MOSUNNY   79  57  47 N6        30.09S
NEW ULM        SUNNY     81  59  47 NW5       30.09S
ST JAMES       SUNNY     82  55  39 W3        30.11S
FAIRMONT       SUNNY     81  55  41 E5        30.11S
GLENCOE        SUNNY     81  57  44 W6        30.08S
FARIBAULT      SUNNY     82  50  32 SW3       30.09S
OWATONNA       SUNNY     81  55  41 W3        30.10S
WASECA         MOSUNNY   77  54  44 CALM      30.11S
ALBERT LEA     PTSUNNY   81  54  39 CALM      30.10S
$$
MNZ078>079-086>088-094>096-011900-
   Southeast Minnesota

CITY           SKY/WX    TMP DP  RH WIND       PRES   REMARKS
ROCHESTER      MOSUNNY   80  58  46 W6        30.11S
6HR MIN TEMP:  60; 6HR MAX TEMP:  80;

RED WING       MOSUNNY   82  57  42 NW5       30.06R
STANTON        MOSUNNY   81  58  44 SW5       30.07S
DODGE CENTER   PTSUNNY   79  57  47 W3        30.10S
WINONA         MOSUNNY   81  57  44 CALM      30.07S
AUSTIN         MOSUNNY   79  55  44 SW6       30.10S
PRESTON        MOSUNNY   77  63  63 N5        30.11S
$$
ABBREVIATIONS USED IN REMARKS
   TC - TEMPERATURES IN CELSIUS
  WCI - WIND CHILL INDEX
   HX - HEAT INDEX
  VSB - VISIBILITY
$$



USA.gov is the U.S. government's official web portal to all federal, state and local government web resources and services.